User: anonymous   Login
Location: Brno
(49.2000°N, 16.6330°E)
Time: 22:45:25
(UTC+02:00)
Language:

BREEZE M DEB (TANK) - Orbit

View from above orbital plane
View from above orbital plane
View from above satellite
View from above satellite

Ground track
Ground track

The orbit data is extracted from the following two-line orbital elements,

1 28359U 04022B   17207.83675062 +.00000620 +00000-0 +97613-4 0  9997
2 28359 049.5567 007.2068 4661954 261.9236 044.6373 06.20150906287768
Epoch (UTC): 26 July 2017 20:04:55
Eccentricity: 0.4661954
inclination: 49.5567°
perigee height: 302 km
apogee height: 11970 km
right ascension of ascending node: 7.2068°
argument of perigee: 261.9236°
revolutions per day: 6.20150906
mean anomaly at epoch: 44.6373°
orbit number at epoch: 28776

The dashed part of the orbit path shows where the satellite is in the earth's shadow,  

DLR